STARLINK-1759 (46340 NORAD) Tracking and Keplerian Element Data

This shows tracking and keplerian element data for the satellite.

Feedback or suggestion? Click here.




ElementValue
Catalog46340
NameSTARLINK-1759
Epoch Orbit178
Epoch Day268.91668981
Epoch Year2020
RAAN324.5258
Inclination53.0026
Eccentricity0.0001304
Argument of Perigee67.9943
Mean Anonmoly125.0083
Mean Motion15.6274695
Decay Rate0.00024558
L11 46340U 20062R 20268.91668981 .00024558 00000-0 27328-3 0 9992
L22 46340 53.0026 324.5258 0001304 67.9943 125.0083 15.62746950 1780

Live tracking and technical data element details for STARLINK-1759 (NORAD 46340). STARLINK-1759 can be tracked NOW for your location showing map with azimuth and elevation plus other details from your city location.

Track the satellite on the map from your city or location and see movement details for azimuth, elevation, latitude, longitude, range, height, and movement on the map or in text.







IsCatalogInMostPopularTable: catalog: 46340, numindb: 2
Update: records affected: 1



GetName: 46340 STARLINK-1759

Hit Count: updated at: Mon, 28 Sep 2020 21:06:44 GMT